Regional Weather Roundup
Issued by NWS

Home | Current Version | Previous Version | Text Only | Print | Product List | Glossary Off
Versions: 1 2 3 4 5 6 7 8 9 10 11 12 13 14 15 16 17 18 19 20 21 22 23 24 25 26 27 28 29 30 31 32 33 34 35 36 37 38 39 40 41 42 43 44 45 46 47 48 49 50

896
ASUS43 KOAX 191210
RWRNE

WEATHER ROUNDUP FOR NEBRASKA
NATIONAL WEATHER SERVICE OMAHA NE
700 AM CDT THU OCT 19 2017

NOTES: SATELLITE DATA IS BEING USED TO AUGMENT CLOUD COVER ABOVE
       12000 FEET.
       "FAIR" INDICATES FEW OR NO CLOUDS BELOW 12,000 FEET WITH NO
       SIGNIFICANT WEATHER AND/OR OBSTRUCTIONS TO VISIBILITY.


NEZ001>004-019>022-054>056-191300-
NEBRASKA PANHANDLE

CITY           SKY/WX    TMP DP  RH WIND       PRES   REMARKS
SCOTTSBLUFF    CLOUDY    37  30  75 E5        30.02S WCI  33
6HR MIN TEMP:  36; 6HR MAX TEMP:  46;

ALLIANCE       CLOUDY    37  31  78 S9        30.00F WCI  30
6HR MIN TEMP:  37; 6HR MAX TEMP:  44;

CHADRON        CLOUDY    52  28  39 SW12      29.93S
6HR MIN TEMP:  52; 6HR MAX TEMP:  61;

GORDON         FAIR      47  34  59 SW14      29.97S
6HR MIN TEMP:  44; 6HR MAX TEMP:  49;

KIMBALL        CLOUDY    41  27  55 W10       30.06S
SIDNEY         CLOUDY    37  30  75 S9        30.05F WCI  30
6HR MIN TEMP:  31; 6HR MAX TEMP:  43;

$$

NEZ057>060-069>072-079>082-191300-
SOUTHWEST NEBRASKA

CITY           SKY/WX    TMP DP  RH WIND       PRES   REMARKS
NORTH PLATTE   CLOUDY    32  30  92 NW6       30.06S WCI  26
6HR MIN TEMP:  32; 6HR MAX TEMP:  41;

IMPERIAL       CLOUDY    39  32  76 W3        30.07S
6HR MIN TEMP:  36; 6HR MAX TEMP:  47;

LEXINGTON      CLOUDY    35  32  88 W6        30.06R WCI  30
MCCOOK         CLOUDY    37  34  89 W3        30.06S
6HR MIN TEMP:  34; 6HR MAX TEMP:  47;

OGALLALA       CLEAR     35  32  87 CALM      30.06F
$$

NEZ005>010-023>029-035>040-094-191300-
NORTH CENTRAL NEBRASKA

CITY           SKY/WX    TMP DP  RH WIND       PRES   REMARKS
VALENTINE      CLOUDY    45  34  65 SW8       29.98F
6HR MIN TEMP:  44; 6HR MAX TEMP:  53;

AINSWORTH      CLOUDY    44  36  72 S7        30.01S
BROKEN BOW     CLOUDY    33  30  88 CALM      30.04S
6HR MIN TEMP:  33; 6HR MAX TEMP:  40;

O`NEILL        CLOUDY    40  36  83 SW5       30.03S
ORD            CLOUDY    33  29  85 CALM      30.05R
6HR MIN TEMP:  32; 6HR MAX TEMP:  41;

THEDFORD       CLOUDY    45  35  68 SW3       30.04S
$$

NEZ041-046>049-061>064-073>077-083>087-191300-
SOUTH CENTRAL NEBRASKA

CITY           SKY/WX    TMP DP  RH WIND       PRES   REMARKS
GRAND ISLAND   CLOUDY    40  37  89 CALM      30.06R
6HR MIN TEMP:  38; 6HR MAX TEMP:  45;

AURORA         CLOUDY    40  36  86 CALM      30.06R
HASTINGS       CLOUDY    41  35  79 CALM      30.06R
6HR MIN TEMP:  39; 6HR MAX TEMP:  47;

HEBRON         CLEAR     40  38  93 CALM      30.05S
HOLDREGE       CLOUDY    36  34  94 N5        30.05R WCI  32
KEARNEY        CLOUDY    38  34  85 NW5       30.06R WCI  34
YORK           CLEAR     39  39 100 CALM      30.06S
$$

NEZ011>018-030>034-042>045-191300-
NORTHEAST NEBRASKA

CITY           SKY/WX    TMP DP  RH WIND       PRES   REMARKS
NORFOLK        CLOUDY    37  35  92 CALM      30.05S
6HR MIN TEMP:  35; 6HR MAX TEMP:  45;

ALBION         CLOUDY    35  33  93 CALM      30.05S
BLAIR          CLEAR     48  45  87 E5        30.06S
COLUMBUS       CLEAR     36  35  96 N3        30.06S
FREMONT        CLEAR     41  40  93 CALM      30.06S
TEKAMAH        CLOUDY    39  37  92 NW3       30.06S
6HR MIN TEMP:  39; 6HR MAX TEMP:  44;

WAYNE          CLOUDY    34  32  92 S3        30.05F
$$

NEZ050>053-065>068-078-088>093-191300-
SOUTHEAST NEBRASKA

CITY           SKY/WX    TMP DP  RH WIND       PRES   REMARKS
LINCOLN        CLEAR     43  40  89 N3        30.07S
6HR MIN TEMP:  41; 6HR MAX TEMP:  48;

OMAHA EPPLEY   PTCLDY    43  39  86 CALM      30.07R
6HR MIN TEMP:  42; 6HR MAX TEMP:  50;

BEATRICE       CLEAR     43  43  97 CALM      30.05S
FALLS CITY     CLEAR     44  43  96 SE6       30.06R
6HR MIN TEMP:  43; 6HR MAX TEMP:  51;

NEBRASKA CITY  CLEAR     49  49 100 CALM      30.07R
PLATTSMOUTH    CLEAR     47  47  98 E3        30.06S
$$

NEZ044-045-051>053-067-191300-
OMAHA AREA

CITY           SKY/WX    TMP DP  RH WIND       PRES   REMARKS
OMAHA EPPLEY   PTCLDY    43  39  86 CALM      30.07R
6HR MIN TEMP:  42; 6HR MAX TEMP:  50;

BLAIR          CLEAR     48  45  87 E5        30.06S
FREMONT        CLEAR     41  40  93 CALM      30.06S
MILLARD        CLEAR     46  45  96 CALM      30.07R
OFFUTT AFB     CLEAR     42  41  96 CALM      30.06R
PLATTSMOUTH    CLEAR     47  47  98 E3        30.06S
WAHOO          FAIR      42  40  91 CALM      30.06S
$$




USA.gov is the U.S. government's official web portal to all federal, state and local government web resources and services.